Location: Strawberry
(45.6646°N, 111.9596°W)
Time: 12:33:03
(UTC+00:00)

Transit 4A - Pass Details

Date: 04 October 2022
Orbit: 871 x 973 km, 66.8° (Epoch: 26 November)

Event Time Altitude Azimuth Distance (km) Brightness Sun altitude
Exits shadow 10:45:56 - 327° (NNW) 3,490 10.8 -28.8°
Reaches altitude 10° 10:50:40 10° 1° (N) 2,559 10.5 -28.0°
Maximum altitude 10:52:18 11° 17° (NNE) 2,474 10.6 -27.7°
Drops below altitude 10° 10:53:55 10° 33° (NNE) 2,545 10.9 -27.5°
Sets 10:58:42 0° 69° (ENE) 3,468 12.2 -26.7°
